Location: Newark
(30.1000°N, 109.4667°E)
Time: 14:58:07
(UTC+00:00)

SR - Pass Details

Date: 19 February 2020
Orbit: 578 x 878 km, 66.7° (Epoch: 08 April)

Event Time Altitude Azimuth Distance (km) Brightness Sun altitude
Rises 19:01:38 0° 320° (NW) 3,170 - -55.3°
Reaches altitude 10° 19:04:28 10° 307° (NW) 2,186 - -54.7°
Maximum altitude 19:08:23 24° 254° (WSW) 1,391 - -54.0°
Drops below altitude 10° 19:12:03 10° 201° (SSW) 2,029 - -53.2°
Sets 19:14:35 0° 187° (S) 2,889 - -52.7°
